Location: Kermapucano
(48.0667°N, 3.3000°W)
Time: 20:45:50
(UTC+00:00)

NOSS 3-2 (C) - Pass Details

Date: 29 November 2020
Orbit: 789 x 1424 km, 63.4° (Epoch: 09 January)

Event Time Altitude Azimuth Distance (km) Brightness Sun altitude
Exits shadow 04:00:11 63° 148° (SSE) 1,436 4.3 -36.0°
Drops below altitude 10° 04:07:08 10° 144° (SE) 3,448 6.6 -34.8°
Sets 04:10:08 0° 144° (SE) 4,459 7.3 -34.3°
